LBD1 EHAM-EGKB

Flight info

Callsign LBD1
Flight time 1h 2m
Altitude 18000
Route IDRID L980 XAMAN
Aircraft B36T/L-BDFGLORY/S

Departure

Time 2026-04-29 10:16
Airport Amsterdam Airport Schiphol (EHAM)

Arrival

Time 2026-04-29 11:19
Airport London Biggin Hill Airport (EGKB)
Time Latitude Longitude Altitude Speed Heading
2026-04-29 09:47 52.31074 4.80403 -7 ft 0 kts 130°
2026-04-29 10:08 52.31075 4.80410 -7 ft 3 kts 51°
2026-04-29 10:08 52.31140 4.80443 -7 ft 15 kts 40°
2026-04-29 10:08 52.31216 4.80550 -7 ft 9 kts 28°
2026-04-29 10:09 52.31247 4.80527 -7 ft 0 kts 281°
2026-04-29 10:10 52.31247 4.80471 -7 ft 16 kts 264°
2026-04-29 10:11 52.31184 4.80334 -7 ft 18 kts 221°
2026-04-29 10:11 52.31080 4.80185 -7 ft 21 kts 223°
2026-04-29 10:11 52.30980 4.80045 -7 ft 20 kts 221°
2026-04-29 10:11 52.30868 4.79881 -7 ft 22 kts 221°
2026-04-29 10:12 52.30749 4.79711 -7 ft 23 kts 223°
2026-04-29 10:12 52.30634 4.79548 -7 ft 18 kts 221°
2026-04-29 10:12 52.30521 4.79386 -7 ft 29 kts 221°
2026-04-29 10:12 52.30384 4.79190 -7 ft 24 kts 221°
2026-04-29 10:13 52.30266 4.79022 -7 ft 21 kts 221°
2026-04-29 10:13 52.30156 4.78866 -7 ft 20 kts 220°
2026-04-29 10:13 52.30054 4.78716 -7 ft 16 kts 232°
2026-04-29 10:13 52.30056 4.78595 -7 ft 7 kts 311°
2026-04-29 10:14 52.30060 4.78588 -7 ft 0 kts 312°
2026-04-29 10:15 52.30061 4.78586 -7 ft 3 kts 312°
2026-04-29 10:15 52.30116 4.78491 -9 ft 10 kts 337°
2026-04-29 10:15 52.30148 4.78505 -9 ft 0 kts 41°
2026-04-29 10:15 52.30175 4.78544 -9 ft 34 kts 40°
2026-04-29 10:16 52.30599 4.79147 104 ft 110 kts 45°
2026-04-29 10:16 52.31021 4.79775 372 ft 127 kts 49°
2026-04-29 10:16 52.31942 4.81188 965 ft 140 kts 43°
2026-04-29 10:16 52.32689 4.82168 1523 ft 136 kts 45°
2026-04-29 10:17 52.33413 4.83166 2076 ft 137 kts 47°
2026-04-29 10:17 52.34301 4.83849 2633 ft 150 kts 21°
2026-04-29 10:17 52.35386 4.83730 3199 ft 167 kts 351°
2026-04-29 10:17 52.36272 4.82442 3828 ft 180 kts 303°
2026-04-29 10:18 52.36588 4.80458 4448 ft 181 kts 281°
2026-04-29 10:18 52.36747 4.78418 5105 ft 181 kts 278°
2026-04-29 10:18 52.36872 4.76370 5743 ft 181 kts 277°
2026-04-29 10:18 52.36770 4.74343 6386 ft 180 kts 251°
2026-04-29 10:19 52.36370 4.72413 7027 ft 178 kts 248°
2026-04-29 10:19 52.35884 4.70557 7643 ft 177 kts 242°
2026-04-29 10:19 52.35327 4.68743 8264 ft 180 kts 240°
2026-04-29 10:19 52.34745 4.66919 8882 ft 182 kts 240°
2026-04-29 10:20 52.34154 4.65085 9537 ft 182 kts 240°
2026-04-29 10:20 52.33561 4.63251 10196 ft 182 kts 240°
2026-04-29 10:20 52.32971 4.61428 10809 ft 179 kts 240°
2026-04-29 10:20 52.32396 4.59644 11414 ft 176 kts 240°
2026-04-29 10:21 52.31828 4.57897 12029 ft 173 kts 240°
2026-04-29 10:21 52.31256 4.56127 12554 ft 180 kts 240°
2026-04-29 10:21 52.30666 4.54295 13085 ft 185 kts 240°
2026-04-29 10:21 52.30060 4.52422 13613 ft 188 kts 240°
2026-04-29 10:22 52.29445 4.50527 14146 ft 190 kts 240°
2026-04-29 10:22 52.28823 4.48613 14617 ft 192 kts 240°
2026-04-29 10:22 52.28196 4.46685 15088 ft 193 kts 241°
2026-04-29 10:22 52.27560 4.44729 15531 ft 197 kts 241°
2026-04-29 10:23 52.26912 4.42750 15976 ft 198 kts 241°
2026-04-29 10:23 52.26262 4.40766 16424 ft 199 kts 241°
2026-04-29 10:23 52.25612 4.38772 16880 ft 199 kts 242°
2026-04-29 10:23 52.24963 4.36778 17343 ft 199 kts 242°
2026-04-29 10:24 52.24310 4.34774 17813 ft 201 kts 242°
2026-04-29 10:24 52.23652 4.32758 18278 ft 204 kts 242°
2026-04-29 10:24 52.22950 4.30607 18329 ft 224 kts 242°
2026-04-29 10:24 52.22198 4.28293 18348 ft 236 kts 242°
2026-04-29 10:25 52.21417 4.25906 18355 ft 241 kts 242°
2026-04-29 10:25 52.20623 4.23487 18350 ft 243 kts 241°
2026-04-29 10:25 52.19818 4.21050 18347 ft 245 kts 241°
2026-04-29 10:25 52.19010 4.18602 18345 ft 246 kts 241°
2026-04-29 10:26 52.18200 4.16146 18344 ft 246 kts 241°
2026-04-29 10:26 52.17391 4.13693 18344 ft 246 kts 241°
2026-04-29 10:26 52.16593 4.11279 18352 ft 246 kts 241°
2026-04-29 10:26 52.15768 4.08785 18352 ft 246 kts 241°
2026-04-29 10:27 52.14146 4.03880 18352 ft 246 kts 241°
2026-04-29 10:27 52.13332 4.01427 18352 ft 246 kts 241°
2026-04-29 10:27 52.12518 3.98975 18353 ft 246 kts 241°
2026-04-29 10:28 52.11706 3.96520 18348 ft 246 kts 241°
2026-04-29 10:28 52.10895 3.94067 18348 ft 246 kts 241°
2026-04-29 10:28 52.10083 3.91614 18343 ft 246 kts 240°
2026-04-29 10:28 52.09269 3.89160 18345 ft 247 kts 240°
2026-04-29 10:29 52.08453 3.86704 18345 ft 247 kts 240°
2026-04-29 10:29 52.07635 3.84247 18345 ft 247 kts 240°
2026-04-29 10:29 52.06814 3.81788 18346 ft 247 kts 240°
2026-04-29 10:29 52.05992 3.79331 18346 ft 247 kts 240°
2026-04-29 10:30 52.05170 3.76876 18343 ft 248 kts 240°
2026-04-29 10:30 52.04348 3.74423 18344 ft 248 kts 240°
2026-04-29 10:30 52.03524 3.71964 18342 ft 248 kts 240°
2026-04-29 10:30 52.02700 3.69509 18334 ft 248 kts 240°
2026-04-29 10:31 52.01875 3.67053 18337 ft 248 kts 240°
2026-04-29 10:31 52.01051 3.64601 18337 ft 248 kts 240°
2026-04-29 10:31 52.00226 3.62145 18336 ft 248 kts 240°
2026-04-29 10:31 51.99459 3.59647 18334 ft 248 kts 249°
2026-04-29 10:32 51.99008 3.56951 18342 ft 248 kts 259°
2026-04-29 10:32 51.98711 3.54192 18338 ft 249 kts 262°
2026-04-29 10:32 51.98454 3.51458 18331 ft 249 kts 262°
2026-04-29 10:32 51.98188 3.48685 18330 ft 249 kts 262°
2026-04-29 10:33 51.97907 3.45916 18333 ft 249 kts 261°
2026-04-29 10:33 51.97610 3.43150 18332 ft 249 kts 261°
2026-04-29 10:33 51.97301 3.40385 18329 ft 249 kts 259°
2026-04-29 10:33 51.96984 3.37623 18331 ft 249 kts 259°
2026-04-29 10:34 51.96663 3.34862 18329 ft 249 kts 259°
2026-04-29 10:34 51.96338 3.32096 18335 ft 250 kts 259°
2026-04-29 10:34 51.96011 3.29332 18336 ft 250 kts 259°
2026-04-29 10:34 51.95683 3.26563 18336 ft 250 kts 259°
2026-04-29 10:35 51.95354 3.23797 18323 ft 250 kts 259°
2026-04-29 10:35 51.95024 3.21029 18322 ft 250 kts 259°
2026-04-29 10:35 51.94694 3.18263 18322 ft 250 kts 259°
2026-04-29 10:35 51.94362 3.15497 18322 ft 250 kts 259°
2026-04-29 10:36 51.94031 3.12732 18322 ft 250 kts 259°
2026-04-29 10:36 51.93698 3.09964 18327 ft 250 kts 259°
2026-04-29 10:36 51.93365 3.07200 18327 ft 250 kts 259°
2026-04-29 10:36 51.93032 3.04436 18328 ft 250 kts 259°
2026-04-29 10:37 51.92696 3.01670 18328 ft 250 kts 259°
2026-04-29 10:37 51.92363 2.98905 18327 ft 250 kts 259°
2026-04-29 10:37 51.92032 2.96137 18327 ft 250 kts 259°
2026-04-29 10:37 51.91696 2.93373 18327 ft 250 kts 259°
2026-04-29 10:38 51.91358 2.90609 18328 ft 250 kts 258°
2026-04-29 10:38 51.91019 2.87842 18329 ft 251 kts 258°
2026-04-29 10:38 51.90673 2.85067 18330 ft 251 kts 258°
2026-04-29 10:38 51.90330 2.82290 18330 ft 252 kts 258°
2026-04-29 10:39 51.89991 2.79510 18330 ft 252 kts 258°
2026-04-29 10:39 51.89647 2.76729 18330 ft 252 kts 258°
2026-04-29 10:39 51.89304 2.73949 18330 ft 252 kts 258°
2026-04-29 10:39 51.88961 2.71176 18332 ft 251 kts 258°
2026-04-29 10:40 51.88734 2.69336 18332 ft 251 kts 258°
2026-04-29 10:40 51.88276 2.65627 18332 ft 252 kts 258°
2026-04-29 10:40 51.87959 2.62840 18332 ft 251 kts 259°
2026-04-29 10:40 51.87651 2.60053 18332 ft 252 kts 259°
2026-04-29 10:41 51.87342 2.57266 18319 ft 252 kts 259°
2026-04-29 10:41 51.87031 2.54481 18318 ft 252 kts 259°
2026-04-29 10:41 51.86716 2.51695 18321 ft 252 kts 259°
2026-04-29 10:41 51.86398 2.48912 18321 ft 251 kts 259°
2026-04-29 10:42 51.86082 2.46170 18321 ft 251 kts 258°
2026-04-29 10:42 51.85760 2.43389 18321 ft 251 kts 258°
2026-04-29 10:42 51.85434 2.40596 18174 ft 253 kts 258°
2026-04-29 10:42 51.85114 2.37818 17921 ft 250 kts 258°
2026-04-29 10:43 51.84797 2.35065 17660 ft 247 kts 258°
2026-04-29 10:43 51.84480 2.32347 17403 ft 245 kts 258°
2026-04-29 10:43 51.84161 2.29648 17165 ft 244 kts 257°
2026-04-29 10:43 51.83947 2.27830 17011 ft 243 kts 258°
2026-04-29 10:44 51.83630 2.25145 16776 ft 243 kts 258°
2026-04-29 10:44 51.83314 2.22471 16552 ft 242 kts 257°
2026-04-29 10:44 51.82998 2.19802 16297 ft 242 kts 257°
2026-04-29 10:44 51.82680 2.17128 16043 ft 242 kts 257°
2026-04-29 10:45 51.82362 2.14460 15793 ft 242 kts 257°
2026-04-29 10:45 51.82045 2.11791 15556 ft 242 kts 257°
2026-04-29 10:45 51.81731 2.09167 15313 ft 240 kts 257°
2026-04-29 10:45 51.81414 2.06518 15066 ft 240 kts 257°
2026-04-29 10:46 51.81097 2.03878 14827 ft 239 kts 257°
2026-04-29 10:46 51.80782 2.01255 14576 ft 238 kts 257°
2026-04-29 10:46 51.80468 1.98642 14351 ft 234 kts 257°
2026-04-29 10:46 51.80158 1.96045 14104 ft 231 kts 257°
2026-04-29 10:47 51.79854 1.93515 13842 ft 228 kts 257°
2026-04-29 10:47 51.79550 1.90999 13575 ft 228 kts 257°
2026-04-29 10:47 51.79247 1.88489 13314 ft 228 kts 257°
2026-04-29 10:47 51.78942 1.85977 13056 ft 227 kts 257°
2026-04-29 10:48 51.78638 1.83485 12796 ft 226 kts 257°
2026-04-29 10:48 51.78333 1.80991 12539 ft 226 kts 257°
2026-04-29 10:48 51.78036 1.78547 12288 ft 223 kts 257°
2026-04-29 10:48 51.77737 1.76097 12035 ft 222 kts 257°
2026-04-29 10:49 51.77432 1.73614 11781 ft 223 kts 257°
2026-04-29 10:49 51.77135 1.71186 11531 ft 223 kts 257°
2026-04-29 10:49 51.76831 1.68706 11284 ft 222 kts 257°
2026-04-29 10:49 51.76528 1.66248 11038 ft 223 kts 257°
2026-04-29 10:50 51.76148 1.63868 10796 ft 221 kts 245°
2026-04-29 10:50 51.75495 1.61389 10532 ft 219 kts 245°
2026-04-29 10:50 51.74986 1.59285 10310 ft 219 kts 246°
2026-04-29 10:50 51.74467 1.57056 10060 ft 218 kts 246°
2026-04-29 10:51 51.73945 1.54817 9796 ft 215 kts 246°
2026-04-29 10:51 51.73420 1.52578 9531 ft 215 kts 246°
2026-04-29 10:51 51.72884 1.50319 9367 ft 217 kts 246°
2026-04-29 10:51 51.72321 1.47995 9343 ft 222 kts 246°
2026-04-29 10:52 51.71763 1.45686 9333 ft 223 kts 245°
2026-04-29 10:52 51.71200 1.43352 9332 ft 223 kts 245°
2026-04-29 10:52 51.70636 1.41025 9322 ft 222 kts 245°
2026-04-29 10:52 51.70075 1.38708 9317 ft 222 kts 245°
2026-04-29 10:53 51.69514 1.36400 9313 ft 221 kts 245°
2026-04-29 10:53 51.68978 1.34185 9059 ft 197 kts 245°
2026-04-29 10:53 51.68505 1.32198 8793 ft 195 kts 244°
2026-04-29 10:53 51.67957 1.30012 8541 ft 221 kts 244°
2026-04-29 10:54 51.67381 1.27703 8292 ft 220 kts 245°
2026-04-29 10:54 51.66825 1.25421 8038 ft 219 kts 245°
2026-04-29 10:54 51.66270 1.23137 7788 ft 219 kts 245°
2026-04-29 10:54 51.65719 1.20877 7538 ft 214 kts 245°
2026-04-29 10:55 51.65183 1.18672 7286 ft 210 kts 245°
2026-04-29 10:55 51.64653 1.16499 7039 ft 207 kts 245°
2026-04-29 10:55 51.64129 1.14361 6788 ft 205 kts 245°
2026-04-29 10:55 51.63604 1.12225 6534 ft 206 kts 244°
2026-04-29 10:56 51.63074 1.10072 6275 ft 207 kts 245°
2026-04-29 10:56 51.62547 1.07929 6068 ft 205 kts 245°
2026-04-29 10:56 51.62004 1.05741 6041 ft 214 kts 244°
2026-04-29 10:56 51.61449 1.03513 6022 ft 215 kts 245°
2026-04-29 10:57 51.60893 1.01273 6016 ft 214 kts 245°
2026-04-29 10:57 51.60359 0.99088 6012 ft 208 kts 245°
2026-04-29 10:57 51.59832 0.96933 6013 ft 207 kts 245°
2026-04-29 10:57 51.59294 0.94744 6014 ft 206 kts 245°
2026-04-29 10:58 51.58775 0.92642 6016 ft 206 kts 244°
2026-04-29 10:58 51.58246 0.90499 6016 ft 207 kts 244°
2026-04-29 10:58 51.57715 0.88352 6026 ft 207 kts 244°
2026-04-29 10:58 51.57175 0.86191 6032 ft 211 kts 244°
2026-04-29 10:59 51.56625 0.83984 6033 ft 214 kts 244°
2026-04-29 10:59 51.56068 0.81762 6031 ft 214 kts 244°
2026-04-29 10:59 51.55509 0.79545 5961 ft 215 kts 244°
2026-04-29 10:59 51.54970 0.77383 5758 ft 204 kts 244°
2026-04-29 11:00 51.54432 0.75249 5611 ft 212 kts 244°
2026-04-29 11:00 51.53867 0.73036 5470 ft 215 kts 244°
2026-04-29 11:00 51.53308 0.70812 5332 ft 215 kts 244°
2026-04-29 11:00 51.52752 0.68602 5179 ft 214 kts 244°
2026-04-29 11:01 51.52192 0.66368 5026 ft 212 kts 244°
2026-04-29 11:01 51.51646 0.64182 4867 ft 210 kts 244°
2026-04-29 11:01 51.51099 0.62006 4709 ft 210 kts 244°
2026-04-29 11:01 51.50556 0.59841 4546 ft 208 kts 244°
2026-04-29 11:02 51.50013 0.57691 4386 ft 208 kts 244°
2026-04-29 11:02 51.49472 0.55547 4240 ft 206 kts 244°
2026-04-29 11:02 51.48935 0.53419 4086 ft 206 kts 244°
2026-04-29 11:02 51.48404 0.51317 3935 ft 207 kts 244°
2026-04-29 11:03 51.47862 0.49175 3791 ft 208 kts 244°
2026-04-29 11:03 51.47316 0.47027 3672 ft 208 kts 244°
2026-04-29 11:03 51.46764 0.44844 3537 ft 209 kts 244°
2026-04-29 11:03 51.46224 0.42718 3381 ft 209 kts 243°
2026-04-29 11:04 51.45673 0.40550 3239 ft 210 kts 243°
2026-04-29 11:04 51.45120 0.38363 3083 ft 211 kts 244°
2026-04-29 11:04 51.44573 0.36216 3030 ft 208 kts 244°
2026-04-29 11:04 51.44021 0.34056 3022 ft 210 kts 244°
2026-04-29 11:05 51.43471 0.31896 3022 ft 208 kts 244°
2026-04-29 11:05 51.42876 0.29792 3016 ft 206 kts 237°
2026-04-29 11:05 51.42156 0.27826 2998 ft 202 kts 233°
2026-04-29 11:05 51.41476 0.25965 2996 ft 188 kts 233°
2026-04-29 11:06 51.40812 0.24164 2989 ft 191 kts 232°
2026-04-29 11:06 51.40121 0.22306 3001 ft 197 kts 234°
2026-04-29 11:06 51.39416 0.20415 2992 ft 198 kts 231°
2026-04-29 11:06 51.38502 0.18943 2982 ft 176 kts 198°
2026-04-29 11:07 51.37420 0.18194 2994 ft 170 kts 193°
2026-04-29 11:07 51.36379 0.17238 3011 ft 173 kts 200°
2026-04-29 11:07 51.35349 0.16232 3015 ft 173 kts 200°
2026-04-29 11:07 51.34329 0.15216 3007 ft 175 kts 205°
2026-04-29 11:08 51.33478 0.13749 2998 ft 186 kts 232°
2026-04-29 11:08 51.33059 0.11763 2998 ft 192 kts 263°
2026-04-29 11:08 51.33142 0.09655 3006 ft 190 kts 276°
2026-04-29 11:08 51.33227 0.07519 3009 ft 196 kts 274°
2026-04-29 11:09 51.33293 0.05330 3004 ft 197 kts 274°
2026-04-29 11:09 51.33366 0.03139 3009 ft 197 kts 275°
2026-04-29 11:09 51.33436 0.00959 3000 ft 195 kts 274°
2026-04-29 11:09 51.33498 -0.01208 2978 ft 195 kts 274°
2026-04-29 11:10 51.33559 -0.03353 2962 ft 193 kts 274°
2026-04-29 11:10 51.33622 -0.05462 2956 ft 192 kts 274°
2026-04-29 11:10 51.33683 -0.07606 2970 ft 184 kts 274°
2026-04-29 11:10 51.33677 -0.09508 2943 ft 166 kts 262°
2026-04-29 11:11 51.33338 -0.11259 2753 ft 165 kts 236°
2026-04-29 11:11 51.32680 -0.12688 2512 ft 156 kts 212°
2026-04-29 11:11 51.31803 -0.13591 2291 ft 149 kts 198°
2026-04-29 11:11 51.30932 -0.14513 2169 ft 149 kts 207°
2026-04-29 11:12 51.30056 -0.15467 2196 ft 154 kts 196°
2026-04-29 11:12 51.29063 -0.15895 2211 ft 142 kts 168°
2026-04-29 11:12 51.28137 -0.15670 2217 ft 129 kts 146°
2026-04-29 11:12 51.27384 -0.15003 2064 ft 121 kts 126°
2026-04-29 11:13 51.26853 -0.14051 1966 ft 110 kts 110°
2026-04-29 11:13 51.26553 -0.13040 1933 ft 96 kts 103°
2026-04-29 11:13 51.26256 -0.12073 1925 ft 101 kts 105°
2026-04-29 11:13 51.25945 -0.11055 1939 ft 102 kts 105°
2026-04-29 11:14 51.25630 -0.10049 1933 ft 99 kts 102°
2026-04-29 11:14 51.25436 -0.09025 1944 ft 93 kts 92°
2026-04-29 11:14 51.25342 -0.08064 1976 ft 84 kts 85°
2026-04-29 11:14 51.25332 -0.07128 2002 ft 88 kts 81°
2026-04-29 11:15 51.25395 -0.06144 1998 ft 90 kts 76°
2026-04-29 11:15 51.25546 -0.05170 1990 ft 90 kts 71°
2026-04-29 11:15 51.25771 -0.04258 1964 ft 85 kts 64°
2026-04-29 11:15 51.26052 -0.03423 1865 ft 85 kts 60°
2026-04-29 11:16 51.26393 -0.02661 1751 ft 84 kts 54°
2026-04-29 11:16 51.26794 -0.01989 1618 ft 83 kts 50°
2026-04-29 11:16 51.27268 -0.01349 1513 ft 91 kts 43°
2026-04-29 11:16 51.27813 -0.00811 1503 ft 94 kts 38°
2026-04-29 11:17 51.28408 -0.00360 1477 ft 95 kts 38°
2026-04-29 11:17 51.29017 0.00113 1484 ft 101 kts 37°
2026-04-29 11:17 51.29618 0.00576 1296 ft 88 kts 38°
2026-04-29 11:17 51.30165 0.00998 1196 ft 89 kts 38°
2026-04-29 11:18 51.30745 0.01447 1081 ft 94 kts 36°
2026-04-29 11:18 51.31331 0.01894 938 ft 93 kts 34°
2026-04-29 11:18 51.31879 0.02301 819 ft 79 kts 37°
2026-04-29 11:18 51.32347 0.02658 672 ft 68 kts 36°
2026-04-29 11:19 51.32762 0.02975 628 ft 64 kts 30°
2026-04-29 11:19 51.33034 0.03195 571 ft 30 kts 25°
2026-04-29 11:19 51.33252 0.03361 560 ft 28 kts 25°
2026-04-29 11:19 51.33358 0.03401 552 ft 13 kts 321°
2026-04-29 11:20 51.33377 0.03223 548 ft 12 kts 252°
2026-04-29 11:20 51.33369 0.03198 548 ft 0 kts 238°
2026-04-29 11:21 51.33369 0.03197 548 ft 0 kts 238°
2026-04-29 11:21 51.33351 0.03171 550 ft 13 kts 210°
2026-04-29 11:21 51.33245 0.03089 558 ft 12 kts 208°
2026-04-29 11:21 51.33196 0.03003 562 ft 7 kts 244°
2026-04-29 11:22 51.33197 0.02970 561 ft 0 kts 284°